Weather in Poselok Baza Drofa

Russia / Khabarovsk Krai     47°53′12″N   135°01′51″E
temp.,
°C
wind,
m/s
gust,
m/s
humid.,
%
clouds,
%
prec.,
mm/h
press.,
hPa
HPBL,
m
27 february, sat
sat2701:00−22ssw23980 0.0 103520
04:00−23sw239816 0.0 103521
07:00−23s239713 0.0 103620
10:00−19ssw129011 0.0 1035115
13:00−13s248238 0.0 1033340
16:00−8sse368169 0.0 1029540
19:00−10se3386100 0.0 102642
22:00−10s2386100 0.0 102344
28 february, sun
sun2801:00−9sw1286100 0.0 102147
04:00−7sw31495100 0.6 1018675
07:00−3sw71396100 2.8 1018760
10:00−4w6993100 4.0 1018519
13:00−6w71183100 0.0 1020647
16:00−8w71178100 0.0 1021718
19:00−11wsw51181100 0.0 1024366
22:00−14w41086100 0.0 1026260
1 march, mon
mon101:00−17w4890100 0.0 1027212
04:00−22wsw349267 0.0 102942
07:00−24wsw44920 0.0 103175
10:00−20wsw59860 0.0 1032302
13:00−16w69690 0.0 1032851
16:00−14w68680 0.0 10321118
19:00−19wsw34820 0.0 103359
22:00−22wsw33870 0.0 103325
2 march, tue
tue201:00−23sw238684 0.0 103325
04:00−23wsw118992 0.0 103320
07:00−24sw2297100 0.0 103320
10:00−21wsw129591 0.0 103399
13:00−16w34740 0.0 1031542
16:00−15w34730 0.0 1030561
19:00−21w23840 0.0 103120
22:00−23wsw22830 0.0 103220
3 march, wed
wed301:00−25sw12860 0.0 103120
04:00−25ssw12860 0.0 103120
07:00−26sse22860 0.0 103120
10:00−20se23840 0.0 1029124
13:00−14se35751 0.0 1026370
16:00−10sse257151 0.0 1022597
19:00−11s2382100 0.0 102029
22:00−12wsw1296100 0.2 101960